#timestamp,LO_Frequency,Hit,StdDev 
1588262415.1,286046999.2,N
1588262435.9,286046997.1,N
1588262455.7,286046997.5,N
1588262475.5,286046993.3,N
1588262495.4,286046998.5,N
1588262515.2,286047001.8,N
1588262535.1,286047004.5,N
1588262536.0,286047004.5,N
1588262555.8,286047003.9,N
1588262575.6,286047002.4,N
1588262595.5,286047000.4,N
1588262615.3,286046999.7,N
1588262635.2,286047000.3,N
1588262655.9,286047000.1,N
1588262675.7,286047001.6,N
1588262695.6,286047004.4,N
1588262715.4,286047002.0,N
1588262735.2,286047002.3,N
1588262755.1,286047001.0,N
1588262756.0,286047001.0,N
1588262775.8,286046999.7,N
1588262795.7,286047001.3,N
1588262815.5,286047000.2,N
1588262835.3,286047000.9,N
1588262855.2,286046998.3,N
1588262875.0,286046995.4,N
1588262875.9,286046995.4,N
1588262895.8,286046995.2,N
1588262915.6,286047000.7,N
1588262935.4,286047002.7,N
1588262955.3,286047002.8,N
1588262975.1,286047000.1,N
1588262995.8,286047002.8,N
1588263015.7,286047001.7,N
1588263035.5,286047005.7,N
1588263055.4,286047005.3,N
1588263075.2,286047004.2,N
1588263095.0,286047004.0,N
1588263095.9,286047004.0,N
1588263115.8,286047007.1,N
1588263135.6,286047010.5,Y
1588263155.4,286047015.3,P
1588263175.3,286047015.7,N
1588263195.1,286047018.3,N
1588263215.9,286047014.8,N
1588263235.7,286047012.6,N
1588263255.5,286047018.5,Y
1588263275.4,286047013.5,P
1588263295.2,286047015.2,P
1588263315.0,286047017.3,P
1588263316.0,286047017.3,Y
1588263335.8,286047006.6,P
1588263355.6,286047008.1,N
1588263375.5,286047009.8,N
1588263395.3,286047011.8,Y
1588263415.1,286046998.3,P
1588263435.9,286046995.2,N
1588263455.7,286046993.0,N
1588263475.6,286046987.0,N
1588263495.4,286046986.2,N
1588263515.2,286046985.3,N
1588263535.1,286046986.1,N
1588263536.0,286046986.1,N
1588263555.8,286046980.9,N
1588263575.7,286046979.8,N
1588263595.5,286046976.6,N
1588263615.3,286046978.7,N
1588263635.2,286046981.7,N
1588263655.0,286046983.9,N
1588263655.9,286046983.9,N
1588263675.7,286046989.0,N
1588263695.6,286046990.1,N
1588263715.4,286046990.6,N
1588263735.3,286046987.3,N
1588263755.1,286046982.6,N
1588263756.0,286046982.6,N
1588263775.8,286046979.8,N
1588263795.7,286046976.9,Y
1588263815.5,286046989.0,P
1588263835.3,286046993.6,P
1588263855.2,286047000.7,N
1588263875.0,286047006.3,N
1588263875.9,286047006.3,N
1588263895.8,286047011.5,N
1588263915.6,286047011.2,N
1588263935.4,286047012.6,N
1588263955.3,286047013.9,N
1588263975.1,286047011.5,N
1588263995.8,286047012.0,N
1588264015.7,286047015.6,N
1588264035.5,286047013.2,N
1588264055.4,286047016.5,N
1588264075.2,286047021.3,N
1588264095.0,286047022.9,N
1588264095.9,286047022.9,N
1588264115.8,286047023.8,N
1588264135.6,286047019.3,N
1588264155.4,286047022.1,N
1588264175.3,286047024.9,N
1588264195.1,286047025.3,N
1588264215.9,286047029.9,N
1588264235.7,286047030.7,N
1588264255.5,286047028.8,N
1588264275.4,286047024.8,N
1588264295.2,286047019.2,N
1588264315.0,286047021.6,N
1588264315.9,286047021.6,N
1588264335.8,286047021.2,N
1588264355.6,286047024.7,N
1588264375.5,286047027.9,Y
1588264395.3,286047015.2,P
1588264415.1,286047018.7,P
1588264435.9,286047012.3,P
1588264455.8,286047008.9,Y
1588264475.6,286046986.9,P
1588264495.4,286046989.2,N
1588264515.3,286046996.2,N
1588264535.1,286047000.5,N
1588264555.9,286047006.9,N
1588264575.7,286047010.3,N
1588264595.5,286047012.1,N
1588264615.4,286047020.1,N
1588264635.2,286047024.1,N
1588264655.0,286047024.7,N
1588264655.9,286047024.7,N
1588264675.8,286047026.0,N
1588264695.6,286047025.4,N
1588264715.5,286047028.7,N
1588264735.3,286047024.2,N
1588264755.1,286047015.3,N
1588264775.9,286047004.5,N
1588264795.7,286047004.3,N
1588264815.5,286047003.2,N
1588264835.4,286047009.3,N
1588264855.2,286047014.0,N
1588264875.1,286047019.8,N
1588264876.0,286047019.8,N
1588264895.8,286047021.8,N
1588264915.6,286047028.3,N
1588264935.5,286047031.4,N
1588264955.3,286047033.9,N
1588264975.1,286047036.7,N
1588264995.9,286047042.0,Y
1588265015.7,286047030.5,P
1588265035.6,286047041.0,P
1588265055.4,286047044.2,P
1588265075.2,286047044.2,Y
1588265095.1,286047011.2,P
1588265096.0,286047011.2,N
1588265115.8,286047009.6,N
1588265135.6,286047013.7,N
1588265155.5,286047016.4,N
1588265175.3,286047016.4,N
1588265195.2,286047019.8,N
1588265215.9,286047014.6,N
1588265235.7,286047014.5,N
1588265255.6,286047013.3,N
1588265275.4,286047011.0,N
1588265295.2,286047016.9,N
1588265315.1,286047019.4,Y
1588265316.0,286047019.4,P
1588265335.8,286047006.9,P
1588265355.7,286047004.8,N
1588265375.5,286047004.6,N
1588265395.3,286047007.0,N
1588265415.2,286047008.0,N
1588265435.0,286047008.5,N
1588265435.9,286047008.5,N
1588265455.7,286047007.5,N
1588265475.6,286047010.7,N
1588265495.4,286047013.2,Y
1588265515.3,286047004.6,P
1588265535.1,286047011.9,P
1588265555.8,286047014.8,P
1588265575.7,286047015.4,Y
1588265595.5,286047001.5,P
1588265615.4,286047003.2,N
1588265635.2,286047002.1,N
1588265655.0,286047002.8,N
1588265655.9,286047002.8,N
1588265675.8,286047005.2,N
1588265695.6,286047009.6,Y
1588265715.4,286047005.3,P
1588265735.3,286047009.1,P
1588265755.1,286047007.3,P
1588265775.9,286047008.8,Y
1588265795.7,286047001.4,P
1588265815.5,286047003.8,N
1588265835.4,286047003.0,N
1588265855.2,286047005.9,Y
1588265875.1,286047007.3,P
1588265876.0,286047007.3,P
1588265895.8,286047004.1,N
1588265915.6,286047005.9,Y
1588265935.5,286046999.9,P
1588265955.3,286047006.3,N
1588265975.1,286047005.3,N
1588265995.9,286047003.3,N
